When you browse on this site, cookies collect data to enhance your experience and personalize the content and advertising you see.
Visit our Privacy Policy to learn more. By continuing to use the site, you agree to this use of cookies and data.
  • In Czech Republic
  • List of Countries
  • For 7 days
  • Water Temperature
  • Weather Map
  • Weather Widgets
  • user-avatar
    Login

    Hourly Weather Valencia

    Today, 19 February, Wednesday

    Time Temperature Precipitation Wind Pressure Humidity
    00:00 +24°C° 0 mm 2 mps 717 mmHg 95%
    01:00 +24°C° 0 mm 1 mps 717 mmHg 95%
    02:00 +24°C° 0 mm 1 mps 717 mmHg 95%
    03:00 +24°C° 0 mm 1 mps 717 mmHg 95%
    04:00 +24°C° 0 mm 1 mps 717 mmHg 94%
    05:00 +24°C° 0 mm 1 mps 717 mmHg 92%
    06:00 +24°C° 0 mm 1 mps 718 mmHg 90%
    07:00 +25°C° 0 mm 1 mps 718 mmHg 87%
    08:00 +27°C° 0 mm 1 mps 719 mmHg 77%
    09:00 +29°C° 0 mm 1 mps 719 mmHg 67%
    10:00 +32°C° 0 mm 1 mps 720 mmHg 57%
    11:00 +32°C° 0.1 mm 1 mps 719 mmHg 57%
    12:00 +32°C° 0.1 mm 2 mps 718 mmHg 57%
    13:00 +32°C° 0.1 mm 2 mps 717 mmHg 57%
    14:00 +31°C° 0.1 mm 2 mps 716 mmHg 61%
    15:00 +30°C° 0.1 mm 3 mps 716 mmHg 65%
    16:00 +29°C° 0.1 mm 3 mps 715 mmHg 70%
    17:00 +27°C° 0 mm 3 mps 716 mmHg 76%
    18:00 +26°C° 0 mm 3 mps 716 mmHg 83%
    19:00 +24°C° 0 mm 2 mps 716 mmHg 89%
    20:00 +24°C° 0 mm 2 mps 717 mmHg 90%
    21:00 +24°C° 0 mm 2 mps 717 mmHg 91%
    22:00 +24°C° 0 mm 2 mps 718 mmHg 91%
    23:00 +24°C° 0 mm 2 mps 717 mmHg 91%

    Tomorrow, 20 February, Thursday

    Time Temperature Precipitation Wind Pressure Humidity
    00:00 +24°C° 0 mm 2 mps 717 mmHg 91%
    01:00 +24°C° 0 mm 2 mps 716 mmHg 91%
    02:00 +23°C° 0 mm 2 mps 716 mmHg 92%
    03:00 +23°C° 0 mm 1 mps 716 mmHg 93%
    04:00 +23°C° 0 mm 1 mps 716 mmHg 94%
    05:00 +23°C° 0 mm 1 mps 717 mmHg 92%
    06:00 +24°C° 0 mm 1 mps 717 mmHg 90%
    07:00 +24°C° 0 mm 1 mps 718 mmHg 88%
    08:00 +26°C° 0 mm 1 mps 718 mmHg 79%
    09:00 +28°C° 0 mm 1 mps 719 mmHg 69%
    10:00 +30°C° 0 mm 1 mps 720 mmHg 60%
    11:00 +31°C° 0.1 mm 1 mps 719 mmHg 57%
    12:00 +32°C° 0.1 mm 1 mps 718 mmHg 54%
    13:00 +32°C° 0.1 mm 1 mps 717 mmHg 52%
    14:00 +31°C° 0.1 mm 2 mps 716 mmHg 56%
    15:00 +30°C° 0.1 mm 2 mps 716 mmHg 61%
    16:00 +29°C° 0.1 mm 3 mps 715 mmHg 65%
    17:00 +28°C° 0 mm 3 mps 715 mmHg 73%
    18:00 +26°C° 0 mm 3 mps 715 mmHg 81%
    19:00 +24°C° 0 mm 3 mps 716 mmHg 89%
    20:00 +24°C° 0 mm 2 mps 716 mmHg 89%
    21:00 +24°C° 0 mm 2 mps 716 mmHg 90%
    22:00 +23°C° 0 mm 2 mps 717 mmHg 91%
    23:00 +23°C° 0 mm 2 mps 717 mmHg 91%

    Day after tomorrow, 21 February, Friday

    Time Temperature Precipitation Wind Pressure Humidity
    00:00 +23°C° 0 mm 2 mps 716 mmHg 91%
    01:00 +23°C° 0 mm 2 mps 716 mmHg 91%
    08:00 +26°C° 0 mm 1 mps 718 mmHg 74%
    09:00 +28°C° 0 mm 1 mps 719 mmHg 64%
    10:00 +31°C° 0 mm 1 mps 719 mmHg 54%
    11:00 +31°C° 0 mm 1 mps 719 mmHg 51%
    12:00 +32°C° 0 mm 2 mps 718 mmHg 49%
    13:00 +34°C° 0 mm 2 mps 717 mmHg 46%
    14:00 +32°C° 0 mm 2 mps 716 mmHg 51%
    15:00 +30°C° 0 mm 3 mps 716 mmHg 55%
    16:00 +29°C° 0 mm 3 mps 715 mmHg 60%
    17:00 +27°C° 0 mm 3 mps 715 mmHg 68%
    18:00 +25°C° 0 mm 2 mps 715 mmHg 77%
    19:00 +23°C° 0 mm 2 mps 716 mmHg 86%
    20:00 +23°C° 0 mm 2 mps 716 mmHg 87%
    21:00 +21°C° 0 mm 2 mps 716 mmHg 88%
    22:00 +21°C° 0 mm 2 mps 717 mmHg 90%
    23:00 +21°C° 0 mm 2 mps 717 mmHg 90%

    22 February, Saturday

    Time Temperature Precipitation Wind Pressure Humidity
    00:00 +21°C° 0 mm 2 mps 717 mmHg 90%
    01:00 +21°C° 0 mm 2 mps 717 mmHg 91%
    02:00 +21°C° 0 mm 2 mps 716 mmHg 91%
    03:00 +21°C° 0 mm 2 mps 716 mmHg 92%
    04:00 +20°C° 0 mm 2 mps 716 mmHg 92%
    05:00 +21°C° 0 mm 2 mps 717 mmHg 91%
    06:00 +21°C° 0 mm 2 mps 717 mmHg 89%
    07:00 +23°C° 0 mm 2 mps 718 mmHg 88%
    08:00 +25°C° 0 mm 2 mps 718 mmHg 76%
    09:00 +28°C° 0 mm 1 mps 719 mmHg 65%
    10:00 +30°C° 0 mm 1 mps 719 mmHg 54%
    11:00 +31°C° 0 mm 2 mps 718 mmHg 51%
    12:00 +31°C° 0 mm 2 mps 718 mmHg 49%
    13:00 +32°C° 0 mm 2 mps 717 mmHg 47%
    14:00 +31°C° 0 mm 3 mps 716 mmHg 50%
    15:00 +30°C° 0 mm 3 mps 716 mmHg 53%
    16:00 +29°C° 0 mm 3 mps 715 mmHg 56%
    17:00 +27°C° 0 mm 3 mps 715 mmHg 65%
    18:00 +25°C° 0 mm 3 mps 715 mmHg 75%
    19:00 +23°C° 0 mm 2 mps 715 mmHg 84%
    20:00 +21°C° 0 mm 2 mps 716 mmHg 85%
    21:00 +21°C° 0 mm 2 mps 716 mmHg 87%
    22:00 +21°C° 0 mm 2 mps 717 mmHg 88%
    23:00 +21°C° 0 mm 2 mps 717 mmHg 89%

    23 February, Sunday

    Time Temperature Precipitation Wind Pressure Humidity
    00:00 +20°C° 0 mm 2 mps 717 mmHg 90%
    01:00 +20°C° 0 mm 2 mps 716 mmHg 91%
    02:00 +20°C° 0 mm 2 mps 716 mmHg 92%
    03:00 +20°C° 0 mm 2 mps 716 mmHg 92%
    04:00 +19°C° 0 mm 2 mps 716 mmHg 92%
    05:00 +20°C° 0 mm 2 mps 717 mmHg 90%
    06:00 +20°C° 0 mm 2 mps 718 mmHg 87%
    07:00 +21°C° 0 mm 2 mps 718 mmHg 85%
    08:00 +25°C° 0 mm 2 mps 719 mmHg 73%
    09:00 +27°C° 0 mm 1 mps 719 mmHg 61%
    10:00 +30°C° 0 mm 1 mps 719 mmHg 49%
    11:00 +30°C° 0 mm 1 mps 719 mmHg 47%
    12:00 +31°C° 0 mm 2 mps 718 mmHg 45%
    13:00 +32°C° 0 mm 2 mps 717 mmHg 43%
    14:00 +31°C° 0 mm 2 mps 716 mmHg 46%
    15:00 +31°C° 0 mm 3 mps 716 mmHg 50%
    16:00 +30°C° 0 mm 3 mps 715 mmHg 54%
    17:00 +28°C° 0 mm 3 mps 715 mmHg 63%
    18:00 +26°C° 0 mm 2 mps 716 mmHg 72%
    19:00 +24°C° 0 mm 2 mps 716 mmHg 81%
    20:00 +23°C° 0 mm 2 mps 716 mmHg 83%
    21:00 +23°C° 0 mm 2 mps 717 mmHg 85%
    22:00 +21°C° 0 mm 2 mps 717 mmHg 87%
    23:00 +21°C° 0 mm 2 mps 717 mmHg 88%

    24 February, Monday

    Time Temperature Precipitation Wind Pressure Humidity
    00:00 +21°C° 0 mm 2 mps 717 mmHg 90%
    01:00 +21°C° 0 mm 2 mps 716 mmHg 91%
    02:00 +21°C° 0 mm 2 mps 716 mmHg 92%
    03:00 +21°C° 0 mm 2 mps 716 mmHg 92%
    04:00 +20°C° 0 mm 2 mps 716 mmHg 93%
    05:00 +21°C° 0 mm 2 mps 717 mmHg 91%
    06:00 +21°C° 0 mm 2 mps 717 mmHg 89%
    07:00 +23°C° 0 mm 2 mps 718 mmHg 87%
    08:00 +25°C° 0 mm 2 mps 718 mmHg 78%
    09:00 +27°C° 0 mm 2 mps 719 mmHg 70%
    10:00 +29°C° 0 mm 2 mps 719 mmHg 61%
    11:00 +30°C° 0 mm 2 mps 718 mmHg 57%
    12:00 +31°C° 0 mm 2 mps 718 mmHg 54%
    13:00 +32°C° 0 mm 2 mps 717 mmHg 50%
    14:00 +31°C° 0 mm 2 mps 716 mmHg 54%
    15:00 +31°C° 0 mm 2 mps 716 mmHg 57%
    16:00 +30°C° 0 mm 3 mps 715 mmHg 61%
    17:00 +28°C° 0 mm 2 mps 716 mmHg 70%
    18:00 +26°C° 0 mm 2 mps 716 mmHg 79%
    19:00 +24°C° 0 mm 2 mps 716 mmHg 87%
    20:00 +24°C° 0 mm 2 mps 717 mmHg 89%
    21:00 +24°C° 0 mm 2 mps 717 mmHg 90%
    22:00 +23°C° 0 mm 2 mps 718 mmHg 92%
    23:00 +23°C° 0 mm 2 mps 717 mmHg 92%
    Show more